Content
SEND FEEDBACK

Daily
Averages
Monthly
Summary
Italy

FLORENCE - AIRPORT, ITALY


Home > Europe > Italy
Elevation: 125 feet     Latitude: 43 48N     Longitude: 011 12E

WEATHER
 
SELECT A DAY
Number of Records: 248,677;   Date Range: 7/1/96 - 10/29/14
 
SHARE

PRINT THIS DATA

[ ← Previous Day ]
WEATHER ALMANAC - FEBRUARY 13, 2013
[ Next Day → ]
[ °C ]   °F
Weather ElementAverageHighLow
Temperature41.4 °F48.2 °F (11:20 am)33.8 °F (12:50 am)
Dewpoint32.9 °F35.6 °F (6:20 am)30.2 °F (5:20 pm)
Humidity73.8 %100 % (12:50 am)54 % (1:50 pm)
Barometer29.81 in29.95 in (11:50 pm)29.74 in (1:50 am)
Wind Speed5.1 mph10.4 mph (12:50 pm)
Wind Gust19.6 mph (7:20 pm)
Weather ElementAverage
Visibility5.4 mi
Wind DirectionESE (104.3 °)

Weather ElementTotal
Precipitation---
Heating Degree Days24 (Base 65)
Averaged from 46 records on February 13, 2013
WEATHER CONDITIONS BREAKOUT
WIND DIRECTION BREAKOUT
WEATHER BY HOUR - FEBRUARY 13, 2013
[ °C ]   °F
Local TimeTemperatureDewpointHumidityBarometerVisibilityWind DirectionWind SpeedGust SpeedPrecipitationEventsConditions
12:50 AM33.8 °F33.8 °F100 %29.77 in3.1 miVariable2.3 mphScattered Clouds
1:50 AM33.8 °F32.0 °F93 %29.74 in3.1 miVariable1.2 mphScattered Clouds
2:20 AM33.8 °F32.0 °F93 %29.74 in3.1 miCalmScattered Clouds
2:50 AM33.8 °F32.0 °F93 %29.74 in3.1 miVariable2.3 mphScattered Clouds
3:20 AM33.8 °F33.8 °F100 %29.74 in3.1 miENE (70°)2.3 mphScattered Clouds
3:50 AM33.8 °F33.8 °F100 %29.74 in3.1 miVariable1.2 mphScattered Clouds
4:20 AM33.8 °F33.8 °F100 %29.74 in3.1 miCalmMostly Cloudy
4:50 AM33.8 °F33.8 °F100 %29.74 in3.1 miCalmMostly Cloudy
5:20 AM33.8 °F33.8 °F100 %29.74 in3.1 miVariable2.3 mphMostly Cloudy
5:50 AM33.8 °F33.8 °F100 %29.74 in3.1 miVariable2.3 mphMostly Cloudy
6:20 AM35.6 °F35.6 °F100 %29.74 in4.3 miVariable2.3 mphMostly Cloudy
6:50 AM35.6 °F33.8 °F93 %29.74 in6.2 miVariable2.3 mphMostly Cloudy
7:20 AM35.6 °F33.8 °F93 %29.77 in6.2 miVariable3.5 mphMostly Cloudy
7:50 AM35.6 °F35.6 °F100 %29.77 in6.2 miSSW (210°)4.6 mphMostly Cloudy
8:20 AM37.4 °F35.6 °F93 %29.77 in6.2 miSouth (170°)3.5 mphScattered Clouds
8:50 AM39.2 °F35.6 °F87 %29.77 in6.2 miSouth (180°)4.6 mphPartly Cloudy
9:20 AM42.8 °F35.6 °F76 %29.77 inSSE (150°)5.8 mphClear
9:50 AM44.6 °F33.8 °F66 %29.80 inVariable4.6 mphClear
10:20 AM44.6 °F33.8 °F66 %29.80 inVariable4.6 mphClear
10:50 AM46.4 °F33.8 °F62 %29.80 in6.2 miWNW (290°)3.5 mphPartly Cloudy
11:20 AM48.2 °F33.8 °F58 %29.80 in6.2 miSW (230°)4.6 mphPartly Cloudy
11:50 AM48.2 °F35.6 °F62 %29.80 in6.2 miNW (310°)8.1 mphPartly Cloudy
12:20 PM48.2 °F33.8 °F58 %29.80 in6.2 miNW (320°)8.1 mphPartly Cloudy
12:50 PM48.2 °F33.8 °F58 %29.80 in6.2 miNW (320°)10.4 mphPartly Cloudy
1:20 PM48.2 °F33.8 °F58 %29.80 in6.2 miVariable6.9 mphPartly Cloudy
1:50 PM48.2 °F32.0 °F54 %29.80 in6.2 miVariable5.8 mphPartly Cloudy
2:20 PM48.2 °F32.0 °F54 %29.80 in6.2 miVariable6.9 mphScattered Clouds
2:50 PM46.4 °F32.0 °F57 %29.80 in6.2 miVariable4.6 mph16.1 mphScattered Clouds
3:20 PM46.4 °F33.8 °F62 %29.83 in6.2 miVariable6.9 mphScattered Clouds
3:50 PM44.6 °F32.0 °F61 %29.83 in6.2 miNE (40°)8.1 mphScattered Clouds
4:20 PM46.4 °F32.0 °F57 %29.83 in6.2 miNNE (20°)6.9 mphScattered Clouds
4:50 PM44.6 °F32.0 °F61 %29.83 in6.2 miNNE (20°)10.4 mphScattered Clouds
5:20 PM44.6 °F30.2 °F57 %29.83 in6.2 miNorth (360°)6.9 mphScattered Clouds
5:50 PM44.6 °F30.2 °F57 %29.83 in6.2 miNorth (350°)6.9 mphPartly Cloudy
6:20 PM44.6 °F30.2 °F57 %29.86 in6.2 miVariable4.6 mphScattered Clouds
6:50 PM42.8 °F30.2 °F61 %29.86 in6.2 miNNE (30°)6.9 mph18.4 mphScattered Clouds
7:20 PM42.8 °F30.2 °F61 %29.86 in6.2 miNNE (20°)8.1 mph19.6 mphScattered Clouds
7:50 PM42.8 °F32.0 °F66 %29.86 in6.2 miVariable4.6 mphScattered Clouds
8:20 PM42.8 °F30.2 °F61 %29.89 in6.2 miVariable4.6 mphScattered Clouds
8:50 PM42.8 °F30.2 °F61 %29.89 in6.2 miNNE (20°)10.4 mphScattered Clouds
9:20 PM42.8 °F32.0 °F66 %29.92 in6.2 miNorth (350°)5.8 mphScattered Clouds
9:50 PM42.8 °F32.0 °F66 %29.92 in6.2 miNNW (330°)6.9 mphScattered Clouds
10:20 PM41.0 °F32.0 °F70 %29.92 in6.2 miNW (320°)8.1 mphScattered Clouds
10:50 PM42.8 °F32.0 °F66 %29.92 in6.2 miVariable5.8 mphScattered Clouds
11:20 PM42.8 °F32.0 °F66 %29.92 in6.2 miNNW (340°)6.9 mphScattered Clouds
11:50 PM42.8 °F32.0 °F66 %29.95 in6.2 miNorth (350°)8.1 mphScattered Clouds
Hourly data recorded from LIRQ, located miles away from Florence - Airport, Italy







STORIES FROM OUR PARTNERS